Stations météo

réclame
Mon MeteoGroup
Brüssel, Belgique (6451): Température de l'air & dewpoint: 19.05.2018 13:00:00 - 25.05.2018 13:00:00 (CEST)Brüssel, Belgique (6451): Vitesse du vent & gusts: 19.05.2018 13:00:00 - 25.05.2018 13:00:00 (CEST)Brüssel, Belgique (6451): Direction du vent: 19.05.2018 13:00:00 - 25.05.2018 13:00:00 (CEST)Brüssel, Belgique (6451): reduced air pressure: 19.05.2018 13:00:00 - 25.05.2018 13:00:00 (CEST)Brüssel, Belgique (6451): visibility: 19.05.2018 13:00:00 - 25.05.2018 13:00:00 (CEST)
Date & Time tt [°C] td [°C] ff [km/h] ff [knt] fx [km/h] fx [knt] dd ppp [hPa] vv [km]
25.05.2018 13:00:00 23,0 16,0 4 2 - - - - 10
25.05.2018 12:00:00 21,6 15,5 4 2 11 6 - 1018,3 10
25.05.2018 11:00:00 21,0 16,1 4 2 - - - 1018,0 10
25.05.2018 10:00:00 19,1 15,8 5 3 11 6 S 1018,2 10
25.05.2018 09:00:00 17,5 15,3 5 3 7 4 S 1018,0 10
25.05.2018 08:00:00 16,5 14,9 0 0 - - N 1017,7 5
25.05.2018 07:00:00 14,1 13,0 2 1 11 6 NNE 1017,4 5
25.05.2018 06:00:00 13,4 12,5 9 5 11 6 S 1017,2 3,6
25.05.2018 05:00:00 13,3 12,6 8 4 - - S 1017,1 4,5
25.05.2018 04:00:00 13,2 12,2 5 3 7 4 SSW 1017,0 3,5
25.05.2018 03:00:00 14,2 13,3 5 3 7 4 S 1016,9 3,5
25.05.2018 02:00:00 14,3 13,5 5 3 - - S 1017,1 3,5
25.05.2018 01:00:00 16,0 14,0 2 1 - - - - 5
25.05.2018 00:00:00 16,0 15,0 7 4 7 4 SSW 1017,3 2,8
24.05.2018 23:00:00 16,3 15,4 2 1 - - - 1017,0 3,0
24.05.2018 22:00:00 17,0 16,0 5 3 - - NNE - 3,0
24.05.2018 21:00:00 17,4 15,4 0 0 14 8 N 1016,3 8
24.05.2018 20:00:00 17,1 15,8 9 5 - - SW 1016,4 10
24.05.2018 19:00:00 16,6 15,1 4 2 29 16 - 1016,6 10
24.05.2018 18:00:00 15,7 14,2 22 12 68 37 S 1017,3 2,0
24.05.2018 17:00:00 23,2 14,7 4 2 - - - 1015,8 10
24.05.2018 16:00:00 22,6 13,9 9 5 18 10 E 1016,6 10
24.05.2018 15:00:00 22,5 14,2 9 5 18 10 E 1016,9 10
24.05.2018 14:00:00 21,9 14,1 8 4 - - E 1017,6 10
24.05.2018 13:00:00 21,2 13,0 8 4 25 14 E 1018,0 10
24.05.2018 12:00:00 20,8 14,9 8 4 22 12 E 1018,4 10
24.05.2018 11:00:00 19,0 13,6 8 4 - - NE 1018,6 10
24.05.2018 10:00:00 17,4 12,7 8 4 11 6 NE 1019,0 10
24.05.2018 09:00:00 15,8 11,9 4 2 14 8 - 1019,1 10
24.05.2018 08:00:00 14,8 11,3 8 4 - - E 1019,3 10
24.05.2018 07:00:00 14,4 12,4 4 2 11 6 ENE 1019,1 10
24.05.2018 06:00:00 13,6 12,6 4 2 4 2 NE 1019,1 10
24.05.2018 05:00:00 13,9 13,0 2 1 - - - 1019,4 7
24.05.2018 04:00:00 14,5 13,2 4 2 7 4 NW 1019,7 10
24.05.2018 03:00:00 15,2 13,9 4 2 7 4 NW 1020,0 10
24.05.2018 02:00:00 15,9 14,2 4 2 - - - 1020,2 10
24.05.2018 01:00:00 16,5 14,8 5 3 32 18 SW 1020,3 10
24.05.2018 00:00:00 17,4 15,7 4 2 32 18 - 1020,4 10
23.05.2018 23:00:00 17,3 16,1 5 3 - - NNE 1019,5 10
23.05.2018 22:00:00 17,8 16,3 2 1 4 2 - 1019,5 10
23.05.2018 21:00:00 18,0 17,0 4 2 - - - - 10
23.05.2018 20:00:00 18,2 16,1 2 1 - - - 1019,3 10
23.05.2018 19:00:00 19,2 16,3 13 7 32 18 NE 1018,7 5
23.05.2018 18:00:00 22,4 15,6 9 5 29 16 E 1018,6 10
23.05.2018 17:00:00 22,5 14,9 11 6 - - ENE 1018,8 10
23.05.2018 16:00:00 22,5 13,7 11 6 22 12 ENE 1019,0 10
23.05.2018 15:00:00 22,0 14,9 11 6 22 12 E 1019,5 10
23.05.2018 14:00:00 20,3 14,7 9 5 - - NNE 1019,7 6
23.05.2018 13:00:00 18,6 15,2 11 6 22 12 NNE 1019,9 3,6
23.05.2018 12:00:00 17,8 15,3 9 5 25 14 ENE 1019,8 3,8
23.05.2018 11:00:00 16,5 14,5 11 6 - - NE 1019,6 5
23.05.2018 10:00:00 16,1 14,1 13 7 18 10 NNE 1019,4 6
23.05.2018 09:00:00 14,5 13,3 9 5 14 8 N 1019,1 2,4
23.05.2018 08:00:00 14,3 13,1 5 3 - - N 1018,7 2,0
23.05.2018 07:00:00 14,0 13,0 5 3 7 4 N 1018,2 2,5
23.05.2018 06:00:00 14,1 13,0 2 1 4 2 WNW 1017,4 4,8
23.05.2018 05:00:00 13,8 12,9 2 1 - - WNW 1017,1 6
23.05.2018 04:00:00 13,8 12,6 4 2 4 2 ESE 1016,8 10
23.05.2018 03:00:00 13,6 12,6 2 1 4 2 - 1016,5 10
23.05.2018 02:00:00 14,3 12,9 4 2 - - NE 1016,6 30
23.05.2018 01:00:00 14,6 12,8 2 1 7 4 - 1016,4 10
23.05.2018 00:00:00 14,9 12,9 4 2 4 2 WNW 1016,2 10
22.05.2018 23:00:00 15,0 13,0 0 0 - - N 1016,3 10
22.05.2018 22:00:00 15,1 12,8 2 1 11 6 - 1015,3 10
22.05.2018 21:00:00 15,2 13,7 9 5 14 8 NE 1014,9 10
22.05.2018 20:00:00 16,0 13,3 9 5 - - W 1014,3 10
22.05.2018 19:00:00 15,6 13,2 4 2 43 23 - 1014,4 9
22.05.2018 18:00:00 16,2 13,2 21 11 32 18 ENE 1014,4 3,6
22.05.2018 17:00:00 23,5 11,8 11 6 - - ENE 1012,7 10
22.05.2018 16:00:00 23,4 11,3 8 4 18 10 NW 1012,5 10
22.05.2018 15:00:00 23,7 13,7 11 6 18 10 NW 1012,6 10
22.05.2018 14:00:00 22,6 13,1 4 2 - - - 1012,9 10
22.05.2018 13:00:00 22,8 15,4 0 0 11 6 N 1012,9 10
22.05.2018 12:00:00 20,6 13,8 4 2 11 6 - 1013,1 10
22.05.2018 11:00:00 18,8 13,0 8 4 - - N 1013,0 10
22.05.2018 10:00:00 17,2 13,2 2 1 11 6 - 1013,1 10
22.05.2018 09:00:00 16,8 13,9 0 0 4 2 N 1012,5 10
22.05.2018 08:00:00 13,8 11,9 2 1 - - - 1012,4 10
22.05.2018 07:00:00 12,5 11,4 4 2 7 4 - 1012,1 10
22.05.2018 06:00:00 12,0 10,7 4 2 7 4 ESE 1011,5 10
22.05.2018 05:00:00 11,9 10,8 4 2 - - - 1011,5 10
22.05.2018 04:00:00 11,7 10,5 2 1 7 4 - 1011,8 10
22.05.2018 03:00:00 12,9 11,5 0 0 7 4 N 1011,9 10
22.05.2018 02:00:00 13,4 11,7 4 2 - - NE 1011,8 10
22.05.2018 01:00:00 14,5 12,7 4 2 4 2 E 1011,8 10
22.05.2018 00:00:00 15,2 13,2 4 2 4 2 ENE 1012,2 10
21.05.2018 23:00:00 16,4 13,7 4 2 - - ENE 1012,3 10
21.05.2018 22:00:00 16,7 14,1 2 1 7 4 - 1012,0 10
21.05.2018 21:00:00 17,8 14,4 4 2 18 10 - 1012,0 10
21.05.2018 20:00:00 19,0 13,6 13 7 - - N 1011,9 10
21.05.2018 19:00:00 22,1 10,6 15 8 36 19 E 1011,5 10
21.05.2018 18:00:00 24,0 11,1 5 3 18 10 NE 1011,7 10
21.05.2018 17:00:00 23,9 12,5 8 4 - - NE 1012,3 10
21.05.2018 16:00:00 23,1 11,0 5 3 22 12 - 1013,2 10
21.05.2018 15:00:00 22,0 11,2 9 5 22 12 ENE 1013,7 10
21.05.2018 14:00:00 20,3 11,2 14 8 - - E 1014,2 25
21.05.2018 13:00:00 19,8 11,5 11 6 22 12 E 1014,6 10
21.05.2018 12:00:00 18,3 10,8 13 7 22 12 E 1015,0 10
21.05.2018 11:00:00 16,3 12,7 8 4 - - ENE 1015,4 10
21.05.2018 10:00:00 14,8 12,9 7 4 18 10 E 1015,9 12
21.05.2018 09:00:00 13,3 11,6 9 5 18 10 NE 1016,0 8
21.05.2018 08:00:00 13,5 11,7 7 4 - - ENE 1016,5 10
21.05.2018 07:00:00 13,4 11,6 8 4 18 10 E 1016,9 10
21.05.2018 06:00:00 14,0 11,5 11 6 18 10 ESE 1017,4 10
21.05.2018 05:00:00 13,3 11,4 5 3 - - ESE 1017,6 10
21.05.2018 04:00:00 12,8 11,5 5 3 7 4 NNE 1017,7 10
21.05.2018 03:00:00 13,7 11,5 4 2 7 4 ESE 1018,4 10
21.05.2018 02:00:00 13,8 11,5 5 3 - - E 1019,2 10
21.05.2018 01:00:00 13,8 12,4 4 2 7 4 NE 1019,6 10
21.05.2018 00:00:00 14,3 12,1 4 2 11 6 - 1019,4 10
20.05.2018 23:00:00 14,5 12,8 8 4 - - NNE 1019,7 10
20.05.2018 22:00:00 16,1 12,8 4 2 14 8 ENE 1019,9 10
20.05.2018 21:00:00 16,3 11,4 4 2 47 25 - 1019,7 10
20.05.2018 20:00:00 20,3 7,9 26 14 - - SSE 1019,1 10
20.05.2018 19:00:00 23,1 8,8 13 7 25 14 E 1018,6 10
20.05.2018 18:00:00 23,4 9,1 15 8 32 18 NE 1018,8 10
20.05.2018 17:00:00 22,5 7,8 16 9 - - ENE 1019,7 10
20.05.2018 16:00:00 22,7 8,0 13 7 25 14 ENE 1020,5 10
20.05.2018 15:00:00 21,6 8,4 9 5 29 16 ENE 1021,3 9
20.05.2018 14:00:00 19,9 8,9 9 5 - - - 1022,1 9
20.05.2018 13:00:00 18,4 8,9 11 6 18 10 NE 1022,7 8
20.05.2018 12:00:00 15,8 9,3 8 4 14 8 NE 1023,2 7
20.05.2018 11:00:00 12,4 9,6 5 3 - - NE 1023,5 6
20.05.2018 10:00:00 10,1 8,8 2 1 11 6 - 1023,6 2,5
20.05.2018 09:00:00 8,6 7,5 8 4 11 6 E 1023,7 1,1
20.05.2018 08:00:00 8,1 7,3 5 3 - - NE 1023,5 0,1
20.05.2018 07:00:00 7,6 7,1 7 4 11 6 NNE 1023,4 0,1
20.05.2018 06:00:00 7,2 7,0 4 2 11 6 N 1023,4 0,1
20.05.2018 05:00:00 6,8 6,4 4 2 - - - 1023,3 0,4
20.05.2018 04:00:00 7,1 7,0 2 1 4 2 N 1023,1 0,3
20.05.2018 03:00:00 7,5 6,8 0 0 4 2 N 1023,3 2,1
20.05.2018 02:00:00 8,0 6,6 4 2 - - NNE 1023,7 2,1
20.05.2018 01:00:00 8,9 7,6 4 2 11 6 N 1023,8 3,9
20.05.2018 00:00:00 9,5 7,9 5 3 7 4 N 1023,8 5
19.05.2018 23:00:00 9,7 7,5 4 2 - - N 1023,5 7
19.05.2018 22:00:00 10,5 7,6 5 3 18 10 N 1023,2 10
19.05.2018 21:00:00 12,0 7,9 11 6 18 10 N 1022,9 10
19.05.2018 20:00:00 13,5 7,4 11 6 - - N 1022,7 10
19.05.2018 19:00:00 13,4 7,6 13 7 22 12 NNW 1022,8 10
19.05.2018 18:00:00 13,9 6,8 13 7 22 12 N 1023,1 10
19.05.2018 17:00:00 13,9 7,1 15 8 - - NW 1023,6 10
19.05.2018 16:00:00 13,6 6,2 8 4 18 10 N 1023,9 10
19.05.2018 15:00:00 12,8 5,2 11 6 14 8 NNW 1024,1 10
19.05.2018 14:00:00 11,8 5,9 5 3 - - NE 1024,4 10
19.05.2018 13:00:00 10,8 5,9 4 2 11 6 - 1024,5 10

tt = Température de l'air
td = dewpoint
ff = Vitesse du vent
fx = gusts
dd = Direction du vent
ppp = reduced air pressure
vv = visibility

stations d'obs. à proximité